Вернуться в каталог

THORAD AGENA D DEB

АктивенPO
NORAD 4971·DEBRIS·🇺🇸 United States

Запущен Apr 8, 1970 с Vandenberg Space Force Base

Loading…

Ближайшие Пролёты

TLE

Source: Space-Track
1 04971U 70025GR  26224.32395322  .00000544  00000-0  18531-2 0  9993
2 04971  99.9289 141.7463 0342503  65.6047  54.6314 12.84811135634897

Отслеживайте THORAD AGENA D DEB в реальном времени с AllMySat

Download on the App Store